OK,106,46,928,106,2014-10-01T01:40:00,0,28072698,198085
OK,106,46,928,106,2014-10-01T01:45:00,0,28073145,198085
OK,106,46,928,106,2014-10-01T01:50:00,0,28073593,198085
OK,106,46,928,106,2014-10-01T01:55:00,0,28073911,198085
OK,106,46,928,106,2014-10-01T02:00:00,0,28074360,198085
OK,106,46,928,106,2014-10-01T02:05:00,0,28074801,198085
OK,106,46,928,106,2014-10-01T02:10:00,0,28075249,198085
OK,106,46,928,106,2014-10-01T02:15:00,0,28075698,198085
OK,106,46,928,106,2014-10-01T02:20:00,0,28076081,198085
OK,106,46,928,106,2014-10-01T02:25:00,0,28076530,198085
OK,106,46,928,106,2014-10-01T02:30:00,0,28076979,198085
OK,106,46,928,106,2014-10-01T02:35:00,0,28077428,198085
OK,106,46,928,106,2014-10-01T02:40:00,0,28077831,198085
OK,106,46,928,106,2014-10-01T02:45:00,0,28078280,198085
OK,106,46,928,106,2014-10-01T02:50:00,0,28078725,198085
OK,106,46,928,106,2014-10-01T02:55:00,0,28079174,198085
OK,106,46,928,106,2014-10-01T03:00:00,0,28079616,198085
OK,106,46,928,106,2014-10-01T03:05:00,0,28080065,198085
OK,106,46,928,106,2014-10-01T03:10:00,0,28080399,198085
OK,106,46,928,106,2014-10-01T03:15:00,0,28080848,198085
OK,106,46,928,106,2014-10-01T03:20:00,0,28081297,198085
OK,106,46,928,106,2014-10-01T03:25:00,0,28081744,198085
OK,106,46,928,106,2014-10-01T03:30:00,0,28082193,198085
OK,106,46,928,106,2014-10-01T03:35:00,0,28082626,198085
OK,106,46,928,106,2014-10-01T03:40:00,0,28083058,198085
OK,95,52,928,95,2014-10-01T03:45:00,1,28083507,198085
OK,95,52,928,95,2014-10-01T03:50:00,1,28083956,198085
OK,95,52,928,95,2014-10-01T03:55:00,0,28084397,198085
OK,95,52,928,95,2014-10-01T04:00:00,0,28084822,198085
OK,87,57,928,87,2014-10-01T04:05:00,1,28085271,198085
OK,87,57,928,87,2014-10-01T04:10:00,3,28085716,198085
OK,117,42,928,117,2014-10-01T04:15:00,1,28086165,198085
OK,80,62,928,80,2014-10-01T04:20:00,1,28086607,198085
OK,80,62,928,80,2014-10-01T04:25:00,1,28087056,198085
OK,80,62,928,80,2014-10-01T04:30:00,0,28087501,198085
OK,80,62,928,80,2014-10-01T04:35:00,0,28087950,198085
OK,94,52,928,94,2014-10-01T04:40:00,2,28088374,198085
OK,94,52,928,94,2014-10-01T04:45:00,2,28088823,198085
OK,116,42,928,116,2014-10-01T04:50:00,1,28089253,198085
OK,151,32,928,151,2014-10-01T04:55:00,1,28089702,198085
OK,102,48,928,102,2014-10-01T05:00:00,2,28090151,198085
OK,123,40,928,123,2014-10-01T05:05:00,5,28090499,198085
OK,127,39,928,127,2014-10-01T05:10:00,6,28090944,198085
OK,119,41,928,119,2014-10-01T05:15:00,5,28091393,198085
OK,129,38,928,129,2014-10-01T05:20:00,5,28091810,198085
OK,150,33,928,150,2014-10-01T05:25:00,6,28092259,198085
OK,151,32,928,151,2014-10-01T05:30:00,3,28092703,198085
OK,130,38,928,130,2014-10-01T05:35:00,2,28093144,198085
OK,154,32,928,154,2014-10-01T05:40:00,3,28093575,198085
OK,155,32,928,155,2014-10-01T05:45:00,2,28094024,198085
OK,106,46,928,106,2014-10-01T05:50:00,1,28094435,198085
OK,191,26,928,191,2014-10-01T05:55:00,4,28094880,198085
OK,185,26,928,185,2014-10-01T06:00:00,8,28095327,198085
OK,175,28,928,175,2014-10-01T06:05:00,8,28095776,198085
OK,147,33,928,147,2014-10-01T06:10:00,9,28096189,198085
OK,147,33,928,147,2014-10-01T06:15:00,9,28096638,198085
OK,152,32,928,152,2014-10-01T06:20:00,8,28097072,198085
OK,146,34,928,146,2014-10-01T06:25:00,5,28097521,198085
OK,160,31,928,160,2014-10-01T06:30:00,7,28097970,198085
OK,149,33,928,149,2014-10-01T06:35:00,7,28098407,198085
OK,138,36,928,138,2014-10-01T06:40:00,6,28098851,198085
OK,96,51,928,96,2014-10-01T06:45:00,3,28099299,198085
OK,115,43,928,115,2014-10-01T06:50:00,4,28099642,198085
OK,117,42,928,117,2014-10-01T06:55:00,3,28100091,198085
OK,122,40,928,122,2014-10-01T07:00:00,2,28100398,198085
OK,109,45,928,109,2014-10-01T07:05:00,5,28100847,198085
OK,109,45,928,109,2014-10-01T07:10:00,5,28101218,198085
OK,132,37,928,132,2014-10-01T07:15:00,3,28101667,198085
OK,128,38,928,128,2014-10-01T07:20:00,4,28102103,198085
OK,124,40,928,124,2014-10-01T07:25:00,3,28102552,198085
OK,127,39,928,127,2014-10-01T07:30:00,1,28102980,198085
OK,127,39,928,127,2014-10-01T07:35:00,6,28103426,198085
OK,127,39,928,127,2014-10-01T07:40:00,8,28103871,198085
OK,112,44,928,112,2014-10-01T07:45:00,2,28104316,198085
OK,87,57,928,87,2014-10-01T07:50:00,0,28104757,198085
OK,129,38,928,129,2014-10-01T07:55:00,1,28105202,198085
OK,135,36,928,135,2014-10-01T08:00:00,4,28105642,198085
OK,139,35,928,139,2014-10-01T08:05:00,4,28106091,198085
OK,109,45,928,109,2014-10-01T08:10:00,2,28106528,198085
OK,109,45,928,109,2014-10-01T08:15:00,2,28106934,198085
OK,101,49,928,101,2014-10-01T08:20:00,2,28107366,198085
OK,124,40,928,124,2014-10-01T08:25:00,5,28107815,198085
OK,136,36,928,136,2014-10-01T08:30:00,3,28108254,198085
OK,119,41,928,119,2014-10-01T08:35:00,3,28108703,198085
OK,119,41,928,119,2014-10-01T08:40:00,3,28109131,198085
OK,142,35,928,142,2014-10-01T08:45:00,1,28109580,198085
OK,169,29,928,169,2014-10-01T08:50:00,1,28109923,198085
OK,152,32,928,152,2014-10-01T08:55:00,4,28110372,198085
OK,143,34,928,143,2014-10-01T09:00:00,6,28110795,198085
OK,108,46,928,108,2014-10-01T09:05:00,5,28111244,198085
OK,88,56,928,88,2014-10-01T09:10:00,2,28111673,198085
OK,81,61,928,81,2014-10-01T09:15:00,0,28112122,198085
OK,159,31,928,159,2014-10-01T09:20:00,1,28112463,198085
OK,117,42,928,117,2014-10-01T09:25:00,3,28112912,198085
OK,117,42,928,117,2014-10-01T09:30:00,1,28113336,198085
OK,115,43,928,115,2014-10-01T09:35:00,1,28113785,198085
OK,100,49,928,100,2014-10-01T09:40:00,2,28114217,198085
OK,85,58,928,85,2014-10-01T09:45:00,1,28114666,198085
OK,85,58,928,85,2014-10-01T09:50:00,0,28115020,198085
OK,125,39,928,125,2014-10-01T09:55:00,2,28115469,198085
OK,125,39,928,125,2014-10-01T10:00:00,2,28115881,198085
OK,162,30,928,162,2014-10-01T10:05:00,1,28116330,198085
OK,157,31,928,157,2014-10-01T10:10:00,3,28116738,198085
OK,143,34,928,143,2014-10-01T10:15:00,6,28117187,198085
OK,106,46,928,106,2014-10-01T10:20:00,7,28117612,198085
OK,113,44,928,113,2014-10-01T10:25:00,6,28118061,198085
OK,96,51,928,96,2014-10-01T10:30:00,10,28118506,198085
OK,115,43,928,115,2014-10-01T10:35:00,12,28118953,198085
OK,148,33,928,148,2014-10-01T10:40:00,5,28119397,198085
OK,117,42,928,117,2014-10-01T10:45:00,4,28119845,198085
OK,128,38,928,128,2014-10-01T10:50:00,3,28120293,198085
OK,112,44,928,112,2014-10-01T10:55:00,3,28120742,198085
OK,109,45,928,109,2014-10-01T11:00:00,4,28121125,198085
OK,102,48,928,102,2014-10-01T11:05:00,1,28121574,198085
OK,104,47,928,104,2014-10-01T11:10:00,2,28122012,198085
OK,141,35,928,141,2014-10-01T11:15:00,2,28122461,198085
OK,185,26,928,185,2014-10-01T11:20:00,1,28122902,198085
OK,135,36,928,135,2014-10-01T11:25:00,5,28123351,198085
OK,141,35,928,141,2014-10-01T11:30:00,6,28123783,198085
OK,134,37,928,134,2014-10-01T11:35:00,2,28124232,198085
OK,131,38,928,131,2014-10-01T11:40:00,1,28124634,198085
OK,131,38,928,131,2014-10-01T11:45:00,3,28125083,198085
OK,125,39,928,125,2014-10-01T11:50:00,5,28125512,198085
OK,132,37,928,132,2014-10-01T11:55:00,2,28125961,198085
OK,133,37,928,133,2014-10-01T12:00:00,3,28126313,198085
OK,133,37,928,133,2014-10-01T12:05:00,3,28126762,198085
OK,154,32,928,154,2014-10-01T12:10:00,4,28127211,198085
OK,134,37,928,134,2014-10-01T12:15:00,6,28127660,198085
OK,108,46,928,108,2014-10-01T12:20:00,2,28128088,198085
OK,130,38,928,130,2014-10-01T12:25:00,1,28128537,198085
OK,123,40,928,123,2014-10-01T12:30:00,3,28128972,198085
OK,111,44,928,111,2014-10-01T12:35:00,5,28129421,198085
OK,120,41,928,120,2014-10-01T12:40:00,8,28129855,198085
OK,160,31,928,160,2014-10-01T12:45:00,6,28130304,198085
OK,164,30,928,164,2014-10-01T12:50:00,2,28130732,198085
OK,176,28,928,176,2014-10-01T12:55:00,3,28131181,198085
OK,176,28,928,176,2014-10-01T13:00:00,5,28131618,198085
OK,143,34,928,143,2014-10-01T13:05:00,8,28132067,198085
OK,143,34,928,143,2014-10-01T13:10:00,10,28132505,198085
OK,185,26,928,185,2014-10-01T13:15:00,7,28132952,198085
OK,185,26,928,185,2014-10-01T13:20:00,6,28133390,198085
OK,176,28,928,176,2014-10-01T13:25:00,7,28133839,198085
OK,217,22,928,217,2014-10-01T13:30:00,4,28134278,198085
OK,140,35,928,140,2014-10-01T13:35:00,5,28134727,198085
OK,171,29,928,171,2014-10-01T13:40:00,8,28135146,198085
OK,221,22,928,221,2014-10-01T13:45:00,8,28135595,198085
OK,246,20,928,246,2014-10-01T13:50:00,7,28136032,198085
OK,213,23,928,213,2014-10-01T13:55:00,8,28136481,198085
OK,187,26,928,187,2014-10-01T14:00:00,12,28136921,198085
OK,156,31,928,156,2014-10-01T14:05:00,11,28137370,198085
OK,180,27,928,180,2014-10-01T14:10:00,8,28137804,198085
OK,167,29,928,167,2014-10-01T14:15:00,5,28138253,198085
OK,174,28,928,174,2014-10-01T14:20:00,4,28138681,198085
OK,190,26,928,190,2014-10-01T14:25:00,3,28139130,198085
OK,208,23,928,208,2014-10-01T14:30:00,6,28139541,198085
OK,186,26,928,186,2014-10-01T14:35:00,8,28139990,198085
OK,192,25,928,192,2014-10-01T14:40:00,8,28140432,198085
OK,182,27,928,182,2014-10-01T14:45:00,11,28140881,198085
OK,167,29,928,167,2014-10-01T14:50:00,7,28141307,198085
OK,163,30,928,163,2014-10-01T14:55:00,6,28141756,198085
OK,122,40,928,122,2014-10-01T15:00:00,6,28142184,198085
OK,130,38,928,130,2014-10-01T15:05:00,7,28142633,198085
OK,130,38,928,130,2014-10-01T15:10:00,11,28143060,198085
OK,111,44,928,111,2014-10-01T15:15:00,10,28143509,198085
OK,116,42,928,116,2014-10-01T15:20:00,7,28143957,198085
OK,113,44,928,113,2014-10-01T15:25:00,12,28144406,198085
OK,109,45,928,109,2014-10-01T15:30:00,7,28144828,198085
OK,101,49,928,101,2014-10-01T15:35:00,2,28145241,198085
OK,108,46,928,108,2014-10-01T15:40:00,5,28145690,198085
OK,115,43,928,115,2014-10-01T15:45:00,5,28146139,198085
OK,105,47,928,105,2014-10-01T15:50:00,5,28146588,198085
OK,102,48,928,102,2014-10-01T15:55:00,4,28146996,198085
OK,102,48,928,102,2014-10-01T16:00:00,4,28147440,198085
OK,107,46,928,107,2014-10-01T16:05:00,5,28147889,198085
OK,120,41,928,120,2014-10-01T16:10:00,6,28148290,198085
OK,141,35,928,141,2014-10-01T16:15:00,4,28148739,198085
OK,122,40,928,122,2014-10-01T16:20:00,2,28149178,198085
OK,125,39,928,125,2014-10-01T16:25:00,6,28149627,198085
OK,119,41,928,119,2014-10-01T16:30:00,7,28150053,198085
OK,108,46,928,108,2014-10-01T16:35:00,3,28150502,198085
OK,134,37,928,134,2014-10-01T16:40:00,1,28150920,198085
OK,134,37,928,134,2014-10-01T16:45:00,0,28151369,198085
OK,87,57,928,87,2014-10-01T16:50:00,1,28151818,198085
OK,135,36,928,135,2014-10-01T17:00:00,1,28152267,198085
OK,88,56,928,88,2014-10-01T17:05:00,3,28152713,198085
OK,122,40,928,122,2014-10-01T17:10:00,7,28153160,198085
OK,127,39,928,127,2014-10-01T17:15:00,6,28153609,198085
OK,137,36,928,137,2014-10-01T17:20:00,4,28154019,198085
OK,146,34,928,146,2014-10-01T17:25:00,4,28154468,198085
OK,137,36,928,137,2014-10-01T17:30:00,3,28154910,198085
OK,114,43,928,114,2014-10-01T17:35:00,3,28155358,198085
OK,125,39,928,125,2014-10-01T17:40:00,2,28155776,198085
OK,136,36,928,136,2014-10-01T17:45:00,0,28156225,198085
OK,136,36,928,136,2014-10-01T17:50:00,0,28156674,198085
OK,136,36,928,136,2014-10-01T17:55:00,0,28157112,198085
OK,136,36,928,136,2014-10-01T18:00:00,0,28157542,198085
OK,99,50,928,99,2014-10-01T18:05:00,2,28157990,198085
OK,121,41,928,121,2014-10-01T18:10:00,2,28158434,198085
OK,124,40,928,124,2014-10-01T18:15:00,1,28158880,198085
OK,104,47,928,104,2014-10-01T18:20:00,1,28159326,198085
OK,95,52,928,95,2014-10-01T18:25:00,2,28159661,198085
OK,86,57,928,86,2014-10-01T18:30:00,1,28160110,198085
OK,86,57,928,86,2014-10-01T18:35:00,0,28160559,198085
OK,84,59,928,84,2014-10-01T18:40:00,1,28160997,198085
OK,98,50,928,98,2014-10-01T18:45:00,2,28161446,198085
OK,110,45,928,110,2014-10-01T18:50:00,2,28161863,198085
OK,108,46,928,108,2014-10-01T18:55:00,1,28162312,198085
OK,108,46,928,108,2014-10-01T19:00:00,0,28162706,198085
OK,110,45,928,110,2014-10-01T19:05:00,1,28163145,198085
OK,110,45,928,110,2014-10-01T19:10:00,1,28163593,198085
OK,125,39,928,125,2014-10-01T19:15:00,1,28164042,198085
OK,120,41,928,120,2014-10-01T19:20:00,2,28164473,198085
OK,112,44,928,112,2014-10-01T19:25:00,3,28164922,198085
OK,99,50,928,99,2014-10-01T19:30:00,3,28165347,198085
OK,120,41,928,120,2014-10-01T19:35:00,2,28165795,198085
OK,174,28,928,174,2014-10-01T19:40:00,1,28166236,198085
OK,174,28,928,174,2014-10-01T19:45:00,1,28166598,198085
OK,87,57,928,87,2014-10-01T19:50:00,2,28167047,198085
OK,87,57,928,87,2014-10-01T19:55:00,2,28167476,198085
OK,109,45,928,109,2014-10-01T20:00:00,1,28167909,198085
OK,109,45,928,109,2014-10-01T20:05:00,1,28168358,198085
OK,131,38,928,131,2014-10-01T20:10:00,1,28168803,198085
OK,131,38,928,131,2014-10-01T20:15:00,1,28169252,198085
OK,131,38,928,131,2014-10-01T20:20:00,0,28169700,198085
OK,131,38,928,131,2014-10-01T20:25:00,0,28170126,198085
OK,131,38,928,131,2014-10-01T20:30:00,0,28170571,198085
OK,131,38,928,131,2014-10-01T20:35:00,0,28171019,198085
OK,131,38,928,131,2014-10-01T20:40:00,0,28171456,198085
OK,100,49,928,100,2014-10-01T20:45:00,1,28171902,198085
OK,100,49,928,100,2014-10-01T20:50:00,1,28172350,198085
OK,88,56,928,88,2014-10-01T20:55:00,3,28172796,198085
OK,88,56,928,88,2014-10-01T21:00:00,3,28173242,198085
OK,88,56,928,88,2014-10-01T21:05:00,0,28173691,198085
OK,121,41,928,121,2014-10-01T21:10:00,1,28174132,198085
OK,106,46,928,106,2014-10-01T21:15:00,2,28174581,198085
OK,91,54,928,91,2014-10-01T21:20:00,1,28175007,198085
OK,91,54,928,91,2014-10-01T21:25:00,0,28175403,198085
OK,91,54,928,91,2014-10-01T21:30:00,0,28175852,198085
OK,91,54,928,91,2014-10-01T21:35:00,0,28176301,198085
OK,91,54,928,91,2014-10-01T21:40:00,0,28176750,198085
OK,91,54,928,91,2014-10-01T21:45:00,0,28177106,198085
OK,91,54,928,91,2014-10-01T21:50:00,0,28177546,198085
OK,91,54,928,91,2014-10-01T21:55:00,0,28177992,198085
OK,91,54,928,91,2014-10-01T22:00:00,0,28178441,198085
OK,91,54,928,91,2014-10-01T22:05:00,0,28178888,198085
OK,91,54,928,91,2014-10-01T22:10:00,0,28179322,198085
OK,91,54,928,91,2014-10-01T22:15:00,0,28179765,198085
OK,91,54,928,91,2014-10-01T22:20:00,0,28180212,198085
OK,91,54,928,91,2014-10-01T22:25:00,0,28180610,198085
OK,91,54,928,91,2014-10-01T22:30:00,0,28181059,198085
OK,111,44,928,111,2014-10-01T22:35:00,1,28181483,198085
OK,111,44,928,111,2014-10-01T22:40:00,0,28181931,198085
OK,111,44,928,111,2014-10-01T22:45:00,0,28182378,198085
OK,111,44,928,111,2014-10-01T22:50:00,0,28182827,198085
OK,111,44,928,111,2014-10-01T22:55:00,0,28183244,198085
OK,111,44,928,111,2014-10-01T23:00:00,0,28183677,198085
OK,111,44,928,111,2014-10-01T23:05:00,0,28184122,198085
OK,111,44,928,111,2014-10-01T23:10:00,0,28184571,198085
OK,111,44,928,111,2014-10-01T23:15:00,0,28185006,198085
OK,111,44,928,111,2014-10-01T23:20:00,0,28185454,198085
OK,111,44,928,111,2014-10-01T23:25:00,0,28185885,198085
OK,111,44,928,111,2014-10-01T23:30:00,0,28186277,198085
OK,111,44,928,111,2014-10-01T23:40:00,0,28187124,198085
OK,111,44,928,111,2014-10-01T23:55:00,0,28188456,198085
OK,111,44,928,111,2014-10-02T00:05:00,0,28189341,198085
OK,111,44,928,111,2014-10-02T00:10:00,0,28189763,198085
OK,111,44,928,111,2014-10-02T00:15:00,0,28190212,198085
OK,111,44,928,111,2014-10-02T00:20:00,0,28190565,198085
OK,111,44,928,111,2014-10-02T00:30:00,0,28191463,198085
OK,111,44,928,111,2014-10-02T00:35:00,0,28191769,198085
OK,111,44,928,111,2014-10-02T00:40:00,0,28192218,198085
OK,111,44,928,111,2014-10-02T00:45:00,0,28192651,198085
OK,111,44,928,111,2014-10-02T00:50:00,0,28193095,198085
OK,111,44,928,111,2014-10-02T00:55:00,0,28193462,198085
OK,111,44,928,111,2014-10-02T01:05:00,0,28194360,198085
OK,111,44,928,111,2014-10-02T01:10:00,0,28194809,198085
OK,111,44,928,111,2014-10-02T01:15:00,0,28195048,198085
OK,111,44,928,111,2014-10-02T01:25:00,0,28195943,198085
OK,111,44,928,111,2014-10-02T01:30:00,0,28196237,198085
OK,111,44,928,111,2014-10-02T01:35:00,0,28196676,198085
OK,111,44,928,111,2014-10-02T01:40:00,0,28197099,198085
OK,153,32,928,153,2014-10-02T01:45:00,0,28197548,198085
OK,153,32,928,153,2014-10-02T01:50:00,0,28197996,198085
OK,153,32,928,153,2014-10-02T01:55:00,0,28198444,198085
OK,153,32,928,153,2014-10-02T02:00:00,0,28198893,198085
OK,153,32,928,153,2014-10-02T02:05:00,0,28199265,198085
OK,153,32,928,153,2014-10-02T02:10:00,0,28199707,198085
OK,153,32,928,153,2014-10-02T02:15:00,0,28200149,198085
OK,153,32,928,153,2014-10-02T02:20:00,0,28200592,198085
OK,153,32,928,153,2014-10-02T02:25:00,0,28201041,198085
OK,153,32,928,153,2014-10-02T02:30:00,0,28201472,198085
OK,153,32,928,153,2014-10-02T02:45:00,0,28202370,198085
OK,153,32,928,153,2014-10-02T02:50:00,0,28202812,198085
OK,153,32,928,153,2014-10-02T02:55:00,0,28203260,198085
OK,153,32,928,153,2014-10-02T03:00:00,0,28203695,198085
OK,153,32,928,153,2014-10-02T03:10:00,0,28204144,198085
OK,153,32,928,153,2014-10-02T03:25:00,0,28204593,198085
OK,153,32,928,153,2014-10-02T03:30:00,0,28205042,198085
OK,153,32,928,153,2014-10-02T03:35:00,0,28205470,198085
OK,153,32,928,153,2014-10-02T03:40:00,0,28205917,198085
OK,153,32,928,153,2014-10-02T03:45:00,0,28206300,198085
OK,153,32,928,153,2014-10-02T03:55:00,0,28207198,198085
OK,134,37,928,134,2014-10-02T04:00:00,1,28207618,198085
OK,134,37,928,134,2014-10-02T04:05:00,0,28208066,198085
OK,134,37,928,134,2014-10-02T04:10:00,0,28208493,198085
OK,134,37,928,134,2014-10-02T04:15:00,0,28208942,198085
OK,136,36,928,136,2014-10-02T04:20:00,1,28209380,198085
OK,136,36,928,136,2014-10-02T04:25:00,0,28209829,198085
OK,136,36,928,136,2014-10-02T04:30:00,0,28210252,198085
OK,136,36,928,136,2014-10-02T04:35:00,0,28210701,198085
OK,136,36,928,136,2014-10-02T04:40:00,0,28211126,198085
OK,136,36,928,136,2014-10-02T04:45:00,0,28211570,198085
OK,136,36,928,136,2014-10-02T04:50:00,0,28211948,198085
OK,142,35,928,142,2014-10-02T04:55:00,2,28212397,198085
OK,201,24,928,201,2014-10-02T05:00:00,0,28212826,198085
OK,87,57,928,87,2014-10-02T05:05:00,2,28213275,198085
OK,87,57,928,87,2014-10-02T05:10:00,1,28213713,198085
OK,118,42,928,118,2014-10-02T05:15:00,6,28214162,198085
OK,101,49,928,101,2014-10-02T05:20:00,1,28214575,198085
OK,119,41,928,119,2014-10-02T05:25:00,4,28215024,198085
OK,119,41,928,119,2014-10-02T05:30:00,4,28215440,198085
OK,119,41,928,119,2014-10-02T05:35:00,0,28215889,198085
OK,121,41,928,121,2014-10-02T05:40:00,9,28216231,198085
OK,142,35,928,142,2014-10-02T05:45:00,5,28216668,198085
OK,164,30,928,164,2014-10-02T05:50:00,0,28217115,198085
OK,150,33,928,150,2014-10-02T05:55:00,9,28217564,198085
OK,169,29,928,169,2014-10-02T06:00:00,8,28218003,198085
OK,199,25,928,199,2014-10-02T06:05:00,8,28218452,198085
OK,171,29,928,171,2014-10-02T06:10:00,1,28218872,198085
OK,169,29,928,169,2014-10-02T06:15:00,5,28219321,198085
OK,169,29,928,169,2014-10-02T06:20:00,13,28219694,198085
OK,161,30,928,161,2014-10-02T06:25:00,10,28220143,198085
OK,148,33,928,148,2014-10-02T06:30:00,8,28220577,198085
OK,145,34,928,145,2014-10-02T06:35:00,6,28221026,198085
OK,136,36,928,136,2014-10-02T06:40:00,7,28221407,198085
OK,136,36,928,136,2014-10-02T06:45:00,7,28221693,198085
OK,118,42,928,118,2014-10-02T07:00:00,3,28222287,198085
OK,127,39,928,127,2014-10-02T07:05:00,5,28222736,198085
OK,164,30,928,164,2014-10-02T07:10:00,3,28223167,198085
OK,81,61,928,81,2014-10-02T07:15:00,0,28223602,198085
OK,81,61,928,81,2014-10-02T07:20:00,0,28224050,198085
OK,121,41,928,121,2014-10-02T07:25:00,2,28224405,198085
OK,121,41,928,121,2014-10-02T07:30:00,1,28224854,198085
OK,121,41,928,121,2014-10-02T07:35:00,1,28225303,198085
OK,121,41,928,121,2014-10-02T07:40:00,0,28225625,198085
OK,134,37,928,134,2014-10-02T07:50:00,2,28226515,198085
OK,137,36,928,137,2014-10-02T07:55:00,1,28226964,198085
OK,137,36,928,137,2014-10-02T08:00:00,0,28227379,198085
OK,85,58,928,85,2014-10-02T08:05:00,3,28227828,198085
OK,85,58,928,85,2014-10-02T08:10:00,1,28228187,198085
OK,148,33,928,148,2014-10-02T08:15:00,1,28228636,198085
OK,148,33,928,148,2014-10-02T08:20:00,0,28229046,198085
OK,103,48,928,103,2014-10-02T08:25:00,1,28229495,198085
OK,103,48,928,103,2014-10-02T08:30:00,1,28229845,198085
OK,142,35,928,142,2014-10-02T08:35:00,0,28230294,198085
OK,142,35,928,142,2014-10-02T08:40:00,0,28230660,198085
OK,142,35,928,142,2014-10-02T08:45:00,0,28231109,198085
OK,130,38,928,130,2014-10-02T08:50:00,2,28231532,198085
OK,130,38,928,130,2014-10-02T08:55:00,2,28231981,198085
OK,158,31,928,158,2014-10-02T09:00:00,2,28232323,198085
OK,161,30,928,161,2014-10-02T09:10:00,0,28232772,198085
OK,120,41,928,120,2014-10-02T09:15:00,1,28233221,198085
OK,120,41,928,120,2014-10-02T09:20:00,0,28233645,198085
OK,157,31,928,157,2014-10-02T09:25:00,1,28234094,198085
OK,157,31,928,157,2014-10-02T09:30:00,0,28234427,198085
OK,108,46,928,108,2014-10-02T09:35:00,4,28234876,198085
OK,108,46,928,108,2014-10-02T09:40:00,4,28235303,198085
OK,126,39,928,126,2014-10-02T09:45:00,5,28235752,198085
OK,119,41,928,119,2014-10-02T09:50:00,2,28236195,198085
OK,154,32,928,154,2014-10-02T09:55:00,1,28236642,198085
OK,154,32,928,154,2014-10-02T10:00:00,1,28237045,198085
OK,154,32,928,154,2014-10-02T10:05:00,0,28237493,198085
OK,105,47,928,105,2014-10-02T10:10:00,6,28237941,198085
OK,114,43,928,114,2014-10-02T10:15:00,4,28238388,198085
OK,113,44,928,113,2014-10-02T10:20:00,5,28238829,198085
OK,114,43,928,114,2014-10-02T10:25:00,2,28239278,198085
OK,115,43,928,115,2014-10-02T10:30:00,0,28239708,198085
OK,128,38,928,128,2014-10-02T10:35:00,3,28240157,198085
OK,144,34,928,144,2014-10-02T10:40:00,2,28240601,198085
OK,142,35,928,142,2014-10-02T10:45:00,2,28241050,198085
OK,130,38,928,130,2014-10-02T10:50:00,0,28241482,198085
OK,100,49,928,100,2014-10-02T10:55:00,1,28241930,198085
OK,100,49,928,100,2014-10-02T11:00:00,1,28242326,198085
OK,100,49,928,100,2014-10-02T11:05:00,0,28242775,198085
OK,121,41,928,121,2014-10-02T11:10:00,5,28243224,198085
OK,121,41,928,121,2014-10-02T11:15:00,4,28243555,198085
OK,131,38,928,131,2014-10-02T11:20:00,4,28243987,198085
OK,117,42,928,117,2014-10-02T11:25:00,2,28244416,198085
OK,125,39,928,125,2014-10-02T11:30:00,0,28244865,198085
OK,125,39,928,125,2014-10-02T11:35:00,2,28245314,198085
OK,151,32,928,151,2014-10-02T11:40:00,1,28245720,198085
OK,151,32,928,151,2014-10-02T11:45:00,0,28246169,198085
OK,114,43,928,114,2014-10-02T11:50:00,2,28246606,198085
OK,120,41,928,120,2014-10-02T11:55:00,4,28247055,198085
OK,116,42,928,116,2014-10-02T12:00:00,0,28247501,198085
OK,167,29,928,167,2014-10-02T12:05:00,3,28247931,198085
OK,170,29,928,170,2014-10-02T12:10:00,0,28248380,198085
OK,105,47,928,105,2014-10-02T12:15:00,2,28248827,198085
OK,105,47,928,105,2014-10-02T12:20:00,0,28249255,198085
OK,147,33,928,147,2014-10-02T12:25:00,6,28249699,198085
OK,169,29,928,169,2014-10-02T12:30:00,2,28250118,198085
OK,118,42,928,118,2014-10-02T12:35:00,5,28250516,198085
OK,132,37,928,132,2014-10-02T13:20:00,10,28251841,198085
OK,186,26,928,186,2014-10-02T13:30:00,7,28252425,198085
OK,230,21,928,230,2014-10-02T13:35:00,2,28252867,198085
OK,172,28,928,172,2014-10-02T13:40:00,0,28253284,198085
OK,153,32,928,153,2014-10-02T13:45:00,7,28253733,198085
OK,161,30,928,161,2014-10-02T13:50:00,3,28254138,198085
OK,154,32,928,154,2014-10-02T13:55:00,7,28254459,198085
OK,211,23,928,211,2014-10-02T14:10:00,5,28255036,198085
OK,140,35,928,140,2014-10-02T14:15:00,7,28255485,198085
OK,158,31,928,158,2014-10-02T14:20:00,5,28255913,198085
OK,112,44,928,112,2014-10-02T14:25:00,0,28256362,198085
OK,235,21,928,235,2014-10-02T14:30:00,4,28256790,198085
OK,247,20,928,247,2014-10-02T14:35:00,3,28257239,198085
OK,198,25,928,198,2014-10-02T14:40:00,4,28257680,198085
OK,173,28,928,173,2014-10-02T14:45:00,8,28258128,198085
OK,169,29,928,169,2014-10-02T14:50:00,7,28258561,198085
OK,175,28,928,175,2014-10-02T14:55:00,4,28259007,198085
OK,169,29,928,169,2014-10-02T15:00:00,9,28259456,198085
OK,160,31,928,160,2014-10-02T15:05:00,5,28259903,198085
OK,160,31,928,160,2014-10-02T15:10:00,7,28260336,198085